AO-07 1 07530U 74089B 18339.90031853 -.00000049 00000-0 -26738-4 0 9991 2 07530 101.7143 304.8003 0012310 4.5796 18.8233 12.53635632 16110 UO-11 1 14781U 84021B 18339.91651476 .00000068 00000-0 14513-4 0 9991 2 14781 097.6313 008.6340 0007273 233.3757 126.6789 14.83048675848894 LO-19 1 20442U 90005G 18339.78057943 -.00000005 00000-0 14454-4 0 9991 2 20442 98.6274 277.3362 0011985 9.6198 350.5213 14.32911842508464 HUBBLE 1 20580U 90037B 18340.22033095 .00000394 00000-0 13084-4 0 9990 2 20580 28.4704 57.7842 0002589 187.1435 26.8456 15.09139289371489 MET-2/21 1 22782U 93055A 18340.10146755 .00000021 00000-0 55062-5 0 9994 2 22782 82.5475 317.4909 0022493 8.0181 42.5830 13.83813477275950 AO-27 1 22825U 93061C 18339.99153475 -.00000005 00000-0 16070-4 0 9999 2 22825 98.8837 319.3993 0007967 199.6173 160.4703 14.30046095314120 IO-26 1 22826U 93061D 18339.89858505 -.00000001 00000-0 17516-4 0 9997 2 22826 098.8777 319.3205 0008649 189.1698 170.9327 14.30378501314054 FO-29 1 24278U 96046B 18340.44674615 .00000007 00000-0 42253-4 0 9998 2 24278 98.5134 155.4570 0350798 24.0971 337.6144 13.53087575101539 NOAA-15 1 25338U 98030A 18340.60435601 .00000024 00000-0 28923-4 0 9996 2 25338 98.7609 357.0816 0011516 87.3858 272.8639 14.25886300 69598 GO-32 1 25397U 98043D 18340.43259383 -.00000026 00000-0 75939-5 0 9990 2 25397 98.6682 278.1477 0000562 181.2903 178.8275 14.23656263 60237 ISS 1 25544U 98067A 18340.88959926 .00000576 00000-0 16008-4 0 9999 2 25544 51.6397 238.0711 0004977 118.4445 316.7145 15.54054828145378 NO-44 1 26931U 01043C 18339.85800632 -.00000042 00000-0 15646-4 0 9998 2 26931 067.0496 146.4372 0006043 259.0346 101.0076 14.30525662897030 SO-50 1 27607U 02058C 18340.16526661 -.00000033 00000-0 16242-4 0 9992 2 27607 64.5552 284.3118 0079293 293.4870 65.7913 14.75502533858334 CO-55 1 27844U 03031E 18340.47288410 .00000049 00000-0 41676-4 0 9993 2 27844 98.6860 346.5837 0009012 229.3758 130.6636 14.22148016800684 CO-57 1 27848U 03031J 18339.84702709 .00000037 00000-0 36699-4 0 9994 2 27848 098.6943 346.4187 0008771 243.0746 116.9536 14.21747518800450 RS-22 1 27939U 03042A 18340.35292203 .00000119 00000-0 29966-4 0 9998 2 27939 98.0127 115.3069 0012053 328.2409 31.8086 14.66737278812056 NOAA-18 1 28654U 05018A 18340.60503963 .00000018 00000-0 34971-4 0 9994 2 28654 99.1250 19.3917 0014273 7.2999 352.8378 14.12391532698129 CO-58 1 28895U 05043F 18340.35502449 .00000097 00000-0 27525-4 0 9993 2 28895 97.9315 125.0949 0015684 243.3092 116.6505 14.63608528699051 Falconsat-3 1 30776U 07006E 18339.85743887 .00001973 00000-0 57704-4 0 9997 2 30776 35.4357 253.2823 0002322 170.7894 189.2875 15.35294110650712 CO-65 1 32785U 08021C 18340.17741244 .00000186 00000-0 25746-4 0 9995 2 32785 97.5461 344.1395 0012980 181.6503 178.4674 14.88215771574751 AAUSAT2 1 32788U 08021F 18340.03177271 .00000204 00000-0 23857-4 0 9998 2 32788 97.5093 359.2762 0013044 128.5022 231.7371 14.94533445575844 DO-64 1 32789U 08021G 18340.09967557 .00001429 00000-0 10070-3 0 9991 2 32789 97.4916 30.3968 0013645 73.8865 286.3864 15.06496920577662 CO-66 1 32791U 08021J 18339.98346999 .00000399 00000-0 45997-4 0 9993 2 32791 97.5305 349.6617 0013861 160.6898 199.4849 14.90685929575101 RS-30 1 32953U 08025A 18340.27556752 .00000020 00000-0 75656-4 0 9997 2 32953 82.5045 265.6438 0018197 191.8767 168.1891 12.43086887478153 PRISM 1 33493U 09002B 18339.69330541 .00000412 00000-0 41899-4 0 9990 2 33493 098.1192 248.2641 0015896 107.4581 252.8386 14.96424082535991 NOAA-19 1 33591U 09005A 18340.57769802 .00000029 00000-0 41057-4 0 9997 2 33591 99.1620 322.1956 0013556 199.5482 160.5171 14.12321618506502 TISAT-1 1 36799U 10035E 18339.93216430 .00000355 00000-0 42066-4 0 9990 2 36799 98.1295 120.9794 0012397 11.2477 348.9015 14.90948915455741 JUGNU 1 37839U 11058B 18339.65355463 .00000301 00000-0 18989-4 0 9999 2 37839 019.9620 077.4922 0018997 337.5017 163.5292 14.12635988369531 SRMSAT 1 37841U 11058D 18339.69946733 .00000291 00000-0 14386-4 0 9997 2 37841 019.9710 129.9574 0011765 214.5856 254.3248 14.10620299369033 AO-71 1 37854U 11061E 18339.92244865 .00001010 00000-0 60120-4 0 9995 2 37854 101.7114 132.9345 0162157 283.9821 074.3407 15.05917626387225 HRBE 1 37855U 11061F 18340.03150481 .00001246 00000-0 70918-4 0 9997 2 37855 101.7238 130.5573 0175033 293.4581 64.8316 15.04911340387494 ALMASAT-1 1 38078U 12006B 18340.43333622 .00039833 42883-5 28488-3 0 9996 2 38078 69.4303 96.7731 0208507 204.2379 217.4745 15.50235305367268 HORYU-2 1 38340U 12025D 18340.03986423 .00000196 00000-0 36789-4 0 9992 2 38340 98.3523 7.5415 0012024 29.8074 330.3816 14.75637312352453 RS-40 1 38735U 12041C 18340.09856284 -.00000015 00000-0 -18250-3 0 9999 2 38735 82.4770 349.4318 0016158 302.4855 57.4662 12.42576811288382 BEESAT-3 1 39135U 13015F 18339.83794407 .00000738 00000-0 46975-4 0 9990 2 39135 064.8690 307.0847 0010570 261.2107 098.7822 15.17051894310299 BEESAT-2 1 39136U 13015G 18339.93496622 .00000809 00000-0 51263-4 0 9995 2 39136 064.8701 310.0301 0010129 249.8527 110.1510 15.16504726310244 ZACUBE-1 1 39417U 13066B 18339.79314968 .00000197 00000-0 31287-4 0 9993 2 39417 097.5740 359.1468 0057905 313.9208 045.7233 14.81020740272198 TRITON-1 1 39427U 13066M 18339.96442104 .00000192 00000-0 38292-4 0 9995 2 39427 97.6556 324.6458 0115294 69.3211 292.0311 14.67750588269771 GOMX-1 1 39430U 13066Q 18340.15410114 .00000156 00000-0 36948-4 0 9994 2 39430 97.7194 304.8458 0151879 147.3843 213.6853 14.59161627268232 LO-74 1 39440U 13066AA 18340.02654161 .00000216 00000-0 37073-4 0 9990 2 39440 97.5988 345.0313 0080328 358.4582 1.6369 14.75761100271268 AO-73 1 39444U 13066AE 18340.03507764 .00000248 00000-0 37039-4 0 9998 2 39444 97.5739 1.1120 0056956 307.7025 51.9032 14.81821689271105 SPROUT 1 39770U 14029E 18340.25617201 .00000608 00000-0 73819-4 0 9998 2 39770 97.8829 79.9538 0008998 13.6873 346.4607 14.87085209245931 DUCHIFAT-1 1 40021U 14033M 18339.73046204 .00000462 00000-0 53178-4 0 9998 2 40021 97.9182 258.7571 0012559 339.2904 20.7803 14.90461634242503 NANOSATCBR1 1 40024U 14033Q 18340.39493810 .00000353 00000-0 42837-4 0 9993 2 40024 97.9101 257.3063 0011856 340.1709 19.9046 14.89702188242511 EO-79 1 40025U 14033R 18340.40855567 .00000210 00000-0 28442-4 0 9995 2 40025 97.9043 255.4181 0012147 345.3128 14.7734 14.88825609242412 DTUSAT-2 1 40030U 14033W 18339.54540638 .00000205 00000-0 28090-4 0 9997 2 40030 97.8977 253.0195 0011561 343.7720 16.3124 14.88425785242222 EO-80 1 40032U 14033Y 18340.34992946 .00000216 00000-0 29412-4 0 9993 2 40032 97.8985 253.8230 0011452 341.7291 18.3513 14.88365977242333 ANTELSAT 1 40034U 14033AA 18340.15782225 .00000215 00000-0 39385-4 0 9990 2 40034 97.7851 210.2641 0059042 5.2565 354.9251 14.74011195240018 VELOX-1 1 40057U 14034E 18340.39393475 .00000284 00000-0 47314-4 0 9994 2 40057 98.2172 94.5760 0012092 132.7580 227.4646 14.77542910239070 DAURIA DX 1 1 40071U 14037C 18340.34416861 .00000093 00000-0 19479-4 0 9992 2 40071 98.3990 119.6518 0009590 124.1926 236.0206 14.81214409238489 UKUBE-1 1 40074U 14037F 18340.37384854 .00000211 00000-0 32545-4 0 9995 2 40074 98.4083 126.6069 0005334 115.5428 244.6367 14.83924997238832 HODOYOSHI-1 1 40299U 14070B 18340.32214161 .00000612 00000-0 28852-4 0 9990 2 40299 97.3675 58.9687 0013476 13.8125 26.3776 15.23127940226686 CHUBUSAT-1 1 40300U 14070C 18340.17368975 .00000666 00000-0 32214-4 0 9995 2 40300 97.3497 54.0815 0020986 22.8812 34.9609 15.21820184226439 QSAT-EOS 1 40301U 14070D 18340.35700316 .00001360 00000-0 56385-4 0 9992 2 40301 97.3471 56.3037 0026433 9.2958 55.0521 15.25305645226662 FIREBIRD FU3 1 40377U 15003B 18340.14586679 .00002565 00000-0 10598-3 0 9996 2 40377 99.0891 276.0160 0129888 18.8669 341.7307 15.17912474212400 FIREBIRD FU4 1 40378U 15003C 18340.39747655 .00002497 00000-0 10319-3 0 9992 2 40378 99.0895 276.3842 0130105 17.9299 342.6457 15.17920691212448 GRIFEX 1 40379U 15003D 18340.37488868 .00001738 00000-0 78423-4 0 9997 2 40379 99.0890 271.5911 0137725 33.1626 327.8140 15.14838682212165 DEORBITSAIL 1 40719U 15032E 18339.63841327 .00000348 00000-0 57116-4 0 9999 2 40719 97.9267 230.1849 0015504 212.0608 147.9660 14.76581460183472 NUDT-PHONESAT 1 40900U 15049B 18340.28826069 .00001904 00000-0 86292-4 0 9994 2 40900 97.4404 346.6303 0014256 140.5235 336.3249 15.22002660178084 XW-2A 1 40903U 15049E 18340.42504186 .00001948 00000-0 48961-4 0 9995 2 40903 97.3658 16.8689 0015197 123.3738 344.1870 15.41131891180329 XW-2C 1 40906U 15049H 18339.83397286 .00000368 00000-0 22945-4 0 9991 2 40906 097.4637 340.2452 0015817 149.2265 332.1654 15.15417295177489 XW-2D 1 40907U 15049J 18340.35997163 .00000470 00000-0 28170-4 0 9991 2 40907 97.4618 340.4430 0015269 144.9359 322.2069 15.15586350177573 LILACSAT-2 1 40908U 15049K 18340.45769331 .00000162 00000-0 12604-4 0 9990 2 40908 97.4736 339.6689 0016847 148.7919 7.9585 15.13648452177422 XW-2E 1 40909U 15049L 18340.47045861 .00001085 00000-0 57592-4 0 9998 2 40909 97.4580 342.9165 0014816 141.8280 13.4571 15.17377584177735 XW-2F 1 40910U 15049M 18340.30120330 .00000826 00000-0 45211-4 0 9994 2 40910 97.4595 342.0124 0015793 140.1064 339.9297 15.16891403177546 XW-2B 1 40911U 15049N 18340.45935159 .00000534 00000-0 31584-4 0 9998 2 40911 97.4637 341.1368 0015343 145.6290 11.4559 15.15525347177482 DCBB 1 40912U 15049P 18340.29405126 .00001046 00000-0 52874-4 0 9991 2 40912 97.4511 345.2392 0016595 126.4857 348.3951 15.19153720177790 TW-1C 1 40926U 15051B 18340.20027345 .00009106 00000-0 15325-3 0 9997 2 40926 97.1652 21.8671 0010023 20.5786 20.1274 15.51890335179960 TW-1A 1 40928U 15051D 18340.15710291 .00002916 00000-0 75879-4 0 9995 2 40928 97.1687 10.6691 0013207 62.7530 333.6210 15.39615064179232 IO-86 1 40931U 15052B 18339.55331408 .00000636 00000-0 -55106-6 0 9992 2 40931 6.0014 8.0604 0014103 274.8145 85.0413 14.76592026172371 LQSat 1 40958U 15057A 18340.36190017 .00000002 00000-0 80499-5 0 9994 2 40958 97.9237 49.5581 0019030 141.3010 218.9567 14.73058634170197 ATHENOXAT-1 1 41168U 15077C 18339.90194785 .00001718 00000-0 56424-4 0 9999 2 41168 14.9797 203.1665 0011886 264.4633 204.8189 15.13178689164422 ChubuSat-2 1 41338U 16012B 18340.19578899 .00000311 00000-0 17557-4 0 9995 2 41338 31.0038 300.7323 0013789 336.5564 23.4442 15.00064290153683 ChubuSat-3 1 41339U 16012C 18340.25494945 .00000293 00000-0 16073-4 0 9993 2 41339 31.0115 298.7082 0013671 343.6545 16.3655 15.00245583153689 Horyu-4 1 41340U 16012D 18339.95073590 .00000448 00000-0 27437-4 0 9997 2 41340 031.0055 293.8604 0013941 356.7656 003.2888 15.01121049153727 OUFTI-1 1 41458U 16025C 18340.24574599 .00000914 00000-0 51777-4 0 9992 2 41458 98.1196 52.1705 0166559 290.6347 67.7096 15.05188686143327 e-st@r-II 1 41459U 16025D 18340.28566966 .00001762 00000-0 95404-4 0 9993 2 41459 98.1188 51.9768 0168473 291.3071 67.0252 15.04880404143305 AAUSAT4 1 41460U 16025E 18340.15543177 .00001806 00000-0 96285-4 0 9997 2 41460 98.1136 52.6473 0159007 286.2789 72.1084 15.06511080143373 LO-87 1 41557U 16033B 18340.47929932 .00000990 00000-0 40465-4 0 9997 2 41557 97.4302 64.0889 0012447 262.8052 97.1771 15.26701779140458 NuSat2 1 41558U 16033C 18340.42726477 .00001086 00000-0 41741-4 0 9997 2 41558 97.4322 64.4657 0011474 266.2567 93.7361 15.28584578140451 Lapan A3 1 41603U 16040E 18340.46791208 .00000132 00000-0 93730-5 0 9991 2 41603 97.3906 38.6460 0013722 5.6999 89.4394 15.19640412136246 Swayam 1 41607U 16040J 18340.12243120 .00001200 00000-0 54340-4 0 9993 2 41607 97.3933 40.5663 0013511 2.3591 357.7707 15.22731703136264 Pratham 1 41783U 16059A 18339.94839483 .00000061 00000-0 21185-4 0 9994 2 41783 098.0968 038.5350 0032280 276.3323 083.4203 14.62959371117073 AlSat 1N 1 41789U 16059G 18340.30753515 .00000045 00000-0 17639-4 0 9994 2 41789 98.0988 40.4678 0026912 266.0583 93.7543 14.64199426117200 ScatSat 1 41790U 16059H 18340.17279728 .00000018 00000-0 15866-4 0 9990 2 41790 98.2381 24.6392 0017026 285.0563 74.8748 14.50882576116120 TY-1 1 41844U 16066D 18340.35665642 .00001340 00000-0 58510-4 0 9994 2 41844 97.4064 345.0978 0016125 146.4518 322.5329 15.23754321115098 Pegasus-1 1 41846U 16066F 18339.91749716 .00000279 00000-0 51766-4 0 9997 2 41846 098.7372 011.7628 0368947 097.1444 267.1836 14.37452048108574 CAS-2T 1 41847U 16066G 18340.12652979 .00000077 00000-0 21271-4 0 9991 2 41847 98.7325 12.4783 0367128 93.5701 270.7540 14.37941606109036 TO-89 1 41932U 98067KU 18339.90283009 .00179390 24692-4 34056-3 0 9991 2 41932 051.6220 164.9722 0004463 211.1691 148.9055 16.00301297107993 EO-88 1 42017U 17008BX 18340.17564790 .00001240 00000-0 52626-4 0 9997 2 42017 97.4293 44.0705 0007652 126.9953 233.1986 15.24951218100275 HAVELSAT 1 42700U 98067LH 18339.99150118 .00069017 00000-0 27371-3 0 9997 2 42700 51.6249 188.3289 0005404 187.6013 172.4910 15.86052310 89136 SOMP2 1 42701U 98067LJ 18339.70996293 .00046751 00000-0 21404-3 0 9990 2 42701 51.6313 193.3021 0005059 175.1501 184.9552 15.83206643 89035 PHOENIX 1 42706U 98067LP 18340.00882477 .00031527 00000-0 18252-3 0 9990 2 42706 51.6273 195.3270 0002902 141.7529 218.3678 15.78285870 88950 X-CubeSat 1 42707U 98067LQ 18339.69960281 .00086717 00000-0 29075-3 0 9990 2 42707 51.6249 187.7691 0004253 180.4268 179.6734 15.89373460 89012 qbee 1 42708U 98067LR 18339.70123971 .00063323 00000-0 25580-3 0 9995 2 42708 51.6255 190.9150 0003664 177.7903 182.3118 15.85716282 88932 ZA-AeroSat 1 42713U 98067LU 18340.00695916 .00030620 00000-0 19025-3 0 9990 2 42713 51.6339 199.8375 0003689 134.2750 225.8554 15.76704198 88551 SpaceCube 1 42717U 98067LY 18339.99614535 .00064281 00000-0 26237-3 0 9991 2 42717 51.6211 189.7906 0004937 184.8747 175.2210 15.85488105 88055 Hoopoe 1 42718U 98067LZ 18339.61544986 .00276670 44611-4 44732-3 0 9990 2 42718 51.6195 181.0798 0005976 218.7597 141.2986 16.02913036 88133 NJUST-1 1 42722U 98067MB 18340.10686997 .00031504 00000-0 21315-3 0 9997 2 42722 51.6355 202.5147 0006047 155.8003 341.1420 15.74718399 87592 LO-90 1 42725U 98067ME 18340.08789992 .00058296 00000-0 28636-3 0 9996 2 42725 51.6346 194.8189 0005161 164.9058 331.8825 15.81603344 87609 nSIGHT1 1 42726U 98067MF 18340.03716152 .00007204 00000-0 77314-4 0 9991 2 42726 51.6377 219.0351 0005742 150.0857 210.0468 15.65013422 87282 SNUSAT 1B 1 42727U 98067MG 18340.14802249 .00047997 00000-0 24004-3 0 9997 2 42727 51.6297 194.6693 0006214 149.8047 210.3314 15.81287928 87570 QBITO 1 42728U 98067MH 18339.69677681 .00074611 00000-0 28046-3 0 9999 2 42728 51.6300 191.0023 0004782 182.5256 177.5725 15.87125488 87420 Aalto-2 1 42729U 98067MJ 18339.79217982 .00082843 00000-0 28779-3 0 9994 2 42729 51.6240 189.2222 0004677 186.8597 173.2345 15.88679848 87462 SUSat 1 42730U 98067MK 18340.03391171 .00047953 00000-0 22588-3 0 9993 2 42730 51.6309 193.2051 0004355 173.0294 187.0770 15.82592512 87427 PolyITAN-2-SAU 1 42732U 98067MM 18339.99067467 .00093562 00000-0 31895-3 0 9994 2 42732 51.6269 187.5392 0005469 161.7707 198.3495 15.89005361 87548 Aoxiang-1 1 42735U 98067MQ 18340.20338140 .00032596 00000-0 21315-3 0 9998 2 42735 51.6323 200.9337 0006165 157.7059 303.9911 15.75485697 88750 BeEagleSat 1 42736U 98067MR 18339.98753942 .00036959 00000-0 20417-3 0 9992 2 42736 51.6300 197.4048 0006294 161.9201 198.2025 15.79228062 87478 CAS-4B 1 42759U 17034B 18340.13703638 .00000173 00000-0 24150-4 0 9996 2 42759 43.0178 219.1961 0008847 105.9867 25.1946 15.09436097 81431 CAS-4A 1 42761U 17034D 18340.17828003 .00000030 00000-0 15358-4 0 9999 2 42761 43.0181 218.6325 0009308 106.5468 35.7725 15.09511460 81433 UCLSat 1 42765U 17036A 18339.86350404 .00001089 00000-0 50293-4 0 9996 2 42765 97.3801 36.7765 0011462 186.5173 173.5916 15.22265455 80820 NIUSat 1 42766U 17036B 18340.15416223 .00000837 00000-0 41070-4 0 9996 2 42766 97.3799 35.9518 0015980 176.4439 183.6913 15.20729203 80661 LituanicaSAT 2 1 42768U 17036D 18339.82949335 .00001705 00000-0 77457-4 0 9998 2 42768 97.3824 36.2965 0015581 178.8212 181.3064 15.22032871 80666 Aalto 1 1 42775U 17036L 18340.14833771 .00000622 00000-0 31079-4 0 9996 2 42775 97.3790 36.2238 0014265 175.8815 184.2541 15.21019815 80634 URSA MAIOR 1 42776U 17036M 18339.92716285 .00000733 00000-0 35966-4 0 9993 2 42776 097.3797 036.0979 0014048 176.7025 183.4306 15.21128612080607 Max Valier Sat 1 42778U 17036P 18340.16325797 .00000813 00000-0 38968-4 0 9991 2 42778 97.3828 36.8447 0012612 179.7504 180.3740 15.21646216 80650 Pegasus 1 42784U 17036V 18339.59477531 .00000945 00000-0 44321-4 0 9993 2 42784 097.3804 036.3936 0011986 187.9598 172.1450 15.22049623080585 NUDATSat 1 42787U 17036Y 18340.16161216 .00001489 00000-0 66626-4 0 9997 2 42787 97.3832 37.3440 0010166 186.4417 173.6690 15.22803306 80536 SUCHAI 1 1 42788U 17036Z 18339.84680626 .00001126 00000-0 51730-4 0 9990 2 42788 97.3806 36.8212 0011626 186.4277 173.6812 15.22385983 80706 SKCUBE 1 42789U 17036AA 18339.78634461 .00001053 00000-0 48664-4 0 9991 2 42789 097.3803 036.7375 0011460 186.5786 173.5302 15.22318996080618 VZLUSAT 1 1 42790U 17036AB 18339.82064237 .00001386 00000-0 62196-4 0 9991 2 42790 097.3813 037.0130 0011130 185.9928 174.1177 15.22811849080633 VENTA 1 1 42791U 17036AC 18339.89487528 .00001015 00000-0 46947-4 0 9996 2 42791 097.3802 036.8920 0011114 186.5037 173.6057 15.22348476080627 Robusta 1B 1 42792U 17036AD 18339.86932075 .00001057 00000-0 48596-4 0 9994 2 42792 097.3803 036.9187 0011033 186.8521 173.2567 15.22477556080642 D-SAT 1 42794U 17036AF 18340.12453639 .00000165 00000-0 19583-4 0 9994 2 42794 97.5692 28.0738 0128284 70.2022 291.2975 14.90980288 79349 BIRD-J 1 42820U 98067MU 18339.79327652 .00034343 00000-0 20176-3 0 9997 2 42820 51.6311 202.1398 0003706 137.3248 222.8041 15.77908302 80856 BIRD-G 1 42821U 98067MV 18339.99971284 .00032221 00000-0 20126-3 0 9994 2 42821 51.6274 202.7747 0003549 130.5889 229.5420 15.76556104 80842 BIRD-M 1 42822U 98067MW 18339.99872654 .00034343 00000-0 20740-3 0 9995 2 42822 51.6330 202.0312 0004167 138.3280 221.8039 15.77285183 80854 BIRD-B 1 42823U 98067MX 18339.91194763 .00036935 00000-0 21970-3 0 9991 2 42823 51.6305 202.2174 0005710 134.0585 226.0886 15.77580116 80841 BIRD-N 1 42824U 98067MY 18339.65391448 .00032854 00000-0 20047-3 0 9992 2 42824 51.6344 204.2832 0005950 138.4718 221.6735 15.77063050 80780 TechnoSat 1 42829U 17042E 18340.25065681 .00000201 00000-0 25790-4 0 9998 2 42829 97.5819 235.9591 0014073 353.5638 6.5398 14.90895801 75961 TOMSK-TPU 120 1 42910U 98067MZ 18340.14446528 .00022760 00000-0 18553-3 0 9998 2 42910 51.6350 211.7575 0006664 137.6919 359.0528 15.70508593 74347 TANYUSHA 1 1 42911U 98067NA 18340.20201483 .00030802 00000-0 22450-3 0 9992 2 42911 51.6334 208.5207 0006389 138.7555 310.0316 15.72990894 74374 TANYUSHA 2 1 42912U 98067NB 18340.04812891 .00027380 00000-0 21058-3 0 9996 2 42912 51.6397 211.1657 0005835 143.1717 359.4588 15.71790016 74346 TNS 0-2 1 42914U 98067ND 18339.93047649 .00019732 00000-0 16230-3 0 9993 2 42914 051.6333 213.6878 0005625 138.9379 221.2043 15.70402342074278 QIKCOM-1 1 42983U 98067NF 18340.24009184 .00002629 00000-0 41859-4 0 9990 2 42983 51.6390 235.4102 0004851 116.5996 243.5494 15.57421575 63028 AO-91 1 43017U 17073E 18340.08377252 .00000559 00000-0 48664-4 0 9994 2 43017 97.7167 264.1272 0260441 72.1234 290.8196 14.78290045 56505 EcAMSat 1 43019U 98067NG 18340.19144662 .00004548 00000-0 63964-4 0 9999 2 43019 51.6403 233.6041 0005658 96.9046 263.2591 15.58894552145364 PICSAT 1 43132U 18004X 18339.87110359 .00001093 00000-0 49431-4 0 9992 2 43132 097.5146 042.8569 0009067 209.5331 150.5394 15.23070808049842 AO-92 1 43137U 18004AC 18340.11855986 .00000873 00000-0 40120-4 0 9999 2 43137 97.5140 43.1247 0008597 210.1033 149.9710 15.23062173 49875 TianYi 2 1 43155U 18008A 18340.44355986 .00000262 00000-0 19567-4 0 9997 2 43155 97.5095 51.8721 0016234 273.3119 181.3394 15.10825353 48498 Zhou Enlai 1 43156U 18008B 18340.35440444 .00000828 00000-0 54344-4 0 9992 2 43156 97.5148 51.7133 0013438 270.9739 156.2694 15.10311182 48469 TianYi 6 1 43158U 18008D 18340.21794786 .00000727 00000-0 48603-4 0 9999 2 43158 97.5083 51.2716 0012631 269.1710 154.0885 15.09974852 48414 S-Net G 1 43186U 18014G 18340.33060697 -.00000197 00000-0 -12204-4 0 9998 2 43186 97.7171 246.4930 0009997 300.2445 59.7786 14.96543612 46065 S-Net H 1 43187U 18014H 18340.33043327 -.00000215 00000-0 -13752-4 0 9990 2 43187 97.7169 246.4859 0009983 300.3115 59.7118 14.96543927 46061 S-Net J 1 43188U 18014J 18340.46399475 -.00000203 00000-0 -12753-4 0 9990 2 43188 97.7171 246.6278 0009978 299.8527 60.1702 14.96544879 46089 S-Net K 1 43189U 18014K 18340.46423102 -.00000192 00000-0 -11808-4 0 9993 2 43189 97.7168 246.6163 0009974 299.6881 60.3347 14.96543557 44634 FMN 1 1 43192U 18015A 18339.96548514 .00001900 00000-0 82452-4 0 9995 2 43192 097.3762 105.6287 0015367 258.0048 101.9466 15.23470258046669 Shaonian Xing 1 43199U 18015H 18339.92346819 .00001380 00000-0 59436-4 0 9990 2 43199 097.3550 105.0927 0015882 272.6142 087.3274 15.24181467046694 1KUNS-PF 1 43466U 98067NP 18340.12924654 .00012205 00000-0 15575-3 0 9998 2 43466 51.6392 236.9210 0001669 101.4783 258.6397 15.59717051 32499 UBAKUSAT 1 43467U 98067NQ 18340.31934147 .00008216 00000-0 11170-3 0 9992 2 43467 51.6384 236.6900 0003315 69.5117 290.6231 15.58549926 32529 Irazu 1 43468U 98067NR 18339.81863628 .00013727 00000-0 16864-3 0 9999 2 43468 51.6389 237.8456 0001630 105.5951 254.5222 15.60599265132444 EnduroSat One 1 43551U 98067NZ 18339.77184503 .00009328 00000-0 12999-3 0 9992 2 43551 51.6390 241.2700 0007306 129.9868 230.1767 15.57677664 22643 EQUISat 1 43552U 98067PA 18340.10726412 .00007818 00000-0 11155-3 0 9998 2 43552 51.6388 239.7626 0007478 131.3992 228.7644 15.57310178 22657 UiTMSat 1 1 43589U 98067PD 18339.77180515 .00008467 00000-0 12176-3 0 9992 2 43589 051.6388 242.0171 0006822 137.1666 222.9858 15.56968684018336 Maya 1 1 43590U 98067PE 18339.76973760 .00008446 00000-0 12137-3 0 9999 2 43590 051.6387 242.0041 0006891 138.0504 222.1016 15.56993792018268 Bhutan 1 1 43591U 98067PF 18340.08765436 .00008956 00000-0 12804-3 0 9993 2 43591 51.6388 240.3779 0006925 140.6678 219.4818 15.57043008 18310 SiriusSat 1 1 43595U 98067PG 18340.18686008 .00008512 00000-0 12429-3 0 9996 2 43595 51.6388 240.2858 0004734 99.5385 260.6141 15.56551490 17509 SiriusSat 2 1 43596U 98067PH 18339.81212272 .00009206 00000-0 13465-3 0 9995 2 43596 51.6396 242.2940 0005399 100.0777 260.0824 15.56387169 17449 Tanusha-3 1 43597U 98067PJ 18340.18257195 .00010301 00000-0 14735-3 0 9990 2 43597 51.6377 240.2459 0004966 112.2891 247.8627 15.56841726 17508 SurfSat 1 43614U 18070B 18340.13136613 .00002536 00000-0 71004-4 0 9996 2 43614 93.0353 283.2259 0015807 345.9759 14.1052 15.36603710 12522 CP-7 DAVE 1 43615U 18070C 18340.13118485 .00002299 00000-0 64407-4 0 9999 2 43615 93.0353 283.2267 0015814 345.6579 14.4223 15.36594446 12525 ELFIN-B 1 43616U 18070D 18340.12538434 .00003427 00000-0 95208-4 0 9996 2 43616 93.0325 283.1892 0017148 348.9877 11.0998 15.36791763 12520 ELFIN-A 1 43617U 18070E 18340.12370289 .00003465 00000-0 96226-4 0 9992 2 43617 93.0375 283.2537 0015994 345.7010 14.3788 15.36825065 12520 STARS-Me Mother 1 43640U 98067PQ 18340.12855394 .00006250 00000-0 97069-4 0 9998 2 43640 51.6392 241.4008 0006697 91.1862 268.9897 15.55390939 9411 CubeBel 1 1 43666U 18083E 18340.48562130 .00000887 00000-0 47989-4 0 9994 2 43666 97.5370 1.1603 0016278 137.7671 1.6523 15.17163769 5834 Changshagaoxin 1 43669U 18083H 18340.14829514 .00000778 00000-0 43389-4 0 9991 2 43669 97.5223 0.7135 0012299 130.6942 229.5361 15.16445081 5741 Ten-Koh 1 43677U 18084G 18339.82220231 .00000531 00000-0 60692-4 0 9998 2 43677 097.8374 090.0459 0015650 200.2272 159.8311 14.90106109005594 Diwata-2 1 43678U 18084H 18340.39042626 -.00000333 00000-0 -27597-4 0 9992 2 43678 97.8374 90.7020 0008792 220.4614 139.5976 14.91506590 5680 IRVINE 01 1 43693U 18088D 18339.73673972 .00002057 00000-0 91879-4 0 9990 2 43693 85.0370 86.7700 0019016 182.5942 177.5204 15.20519832 3731 OBJECT A 1 43758U 18099A 18340.89669225 -.00020822 00000-0 -18920-2 0 9995 2 43758 97.7695 50.0183 0011422 247.4327 112.5916 14.95232092 471 JY1Sat 1 43759U 18099B 18339.89316722 .00002713 00000-0 25285-3 0 9995 2 43759 097.7686 049.0273 0012270 254.3190 105.6487 14.95046029000320 ITASat 1 1 43760U 18099C 18340.22790408 .00000170 00000-0 20840-4 0 9991 2 43760 97.7693 49.3571 0012188 252.4808 107.5093 14.94988016 376 OBJECT D 1 43761U 18099D 18339.62555799 .00000107 00000-0 15093-4 0 9990 2 43761 97.7700 48.7616 0012391 251.1738 108.8155 14.94954902 272 OBJECT E 1 43762U 18099E 18340.64818022 -.00000674 00000-0 -55780-4 0 9994 2 43762 97.7701 49.7750 0011400 260.7254 203.5873 14.95362950 438 ESEO 1 43763U 18099F 18340.71654919 .00001025 00000-0 97847-4 0 9995 2 43763 97.7688 49.8437 0011624 253.6583 219.5602 14.95465542 449 OBJECT G 1 43764U 18099G 18340.71616848 -.00000081 00000-0 -19426-5 0 9996 2 43764 97.7707 49.8431 0014292 258.4989 219.0525 14.96095374 434 OBJECT H 1 43765U 18099H 18340.42702448 .00006053 00000-0 54422-3 0 9993 2 43765 97.7690 49.5622 0013183 264.4732 95.5009 14.95972030 397 OBJECT J 1 43766U 18099J 18340.64982338 -.00000058 00000-0 00000 0 0 9995 2 43766 97.7666 49.7785 0010516 240.9717 222.8207 14.94410740 436 OBJECT K 1 43767U 18099K 18340.42954470 .00003021 00000-0 28500-3 0 9999 2 43767 97.7711 49.5589 0009683 250.2151 109.8028 14.94496315 401 OBJECT L 1 43768U 18099L 18340.44125200 -.00004683 00000-0 -42952-3 0 9997 2 43768 97.7700 49.5683 0009673 250.5995 171.8202 14.94409872 127 AO-95 1 43774U 18099S 18340.66044376 .00001644 00000-0 15648-3 0 9996 2 43774 97.7715 49.7845 0011035 250.7436 273.4950 14.94768966 423 MOVE-II 1 43775U 18099T 18340.16118350 .00014164 00000-0 13010-2 0 9997 2 43775 97.7715 49.2856 0013302 239.1147 120.9020 14.94865566 349 PWSat 2 1 43776U 18099U 18339.64559505 .00007309 00000-0 67481-3 0 9995 2 43776 97.7711 48.7875 0013136 253.7982 213.2961 14.94851642 266 /EX
